QPF
0.01 0.01 0.02 0.02 0.03 0.05 0.04 0.04 0.03 0.02 0.01 0.01 0.01 0.02 0.02 0.02 0.02 0.04 0.03 0.04 0.06 0.08 0.11 0.12 0.12 0.10 0.08 0.07 0.06 0.06 0.06 0.06 0.05 0.03 0.02 0.01 0.01 0.01 0.01 0.02 0.02 0.02 0.02
0.01 0.02 0.04 0.04 0.04 0.06 0.07 0.07 0.06 0.05 0.04 0.03 0.03 0.04 0.03 0.03 0.03 0.05 0.04 0.04 0.06 0.09 0.12 0.13 0.11 0.10 0.09 0.07 0.06 0.06 0.06 0.05 0.05 0.04 0.04 0.04 0.03 0.03 0.02 0.03 0.03 0.02 0.02
0.03 0.03 0.07 0.08 0.08 0.10 0.11 0.11 0.10 0.10 0.07 0.06 0.06 0.06 0.07 0.06 0.06 0.05 0.04 0.04 0.05 0.09 0.12 0.13 0.12 0.11 0.09 0.07 0.06 0.05 0.05 0.04 0.05 0.05 0.05 0.04 0.04 0.04 0.03 0.03 0.02 0.02 0.02
0.03 0.04 0.06 0.07 0.08 0.10 0.11 0.14 0.15 0.14 0.13 0.12 0.11 0.11 0.11 0.10 0.09 0.08 0.06 0.07 0.09 0.08 0.09 0.11 0.13 0.12 0.10 0.10 0.09 0.08 0.07 0.05 0.05 0.05 0.04 0.04 0.04 0.03 0.02 0.02 0.02 0.02 0.02
0.05 0.05 0.06 0.09 0.11 0.11 0.11 0.14 0.15 0.15 0.14 0.14 0.15 0.15 0.12 0.10 0.09 0.09 0.09 0.10 0.11 0.10 0.10 0.11 0.13 0.14 0.13 0.13 0.13 0.14 0.12 0.09 0.08 0.07 0.06 0.04 0.04 0.03 0.02 0.02 0.02 0.02 0.02
0.07 0.07 0.06 0.08 0.12 0.13 0.12 0.13 0.12 0.12 0.13 0.14 0.16 0.16 0.11 0.09 0.08 0.08 0.08 0.07 0.09 0.11 0.11 0.10 0.10 0.11 0.12 0.13 0.15 0.17 0.16 0.15 0.13 0.12 0.09 0.06 0.05 0.04 0.03 0.03 0.03 0.02 0.02
0.07 0.06 0.07 0.07 0.09 0.11 0.12 0.11 0.10 0.11 0.11 0.12 0.13 0.11 0.09 0.08 0.07 0.07 0.10 0.11 0.10 0.11 0.11 0.10 0.08 0.08 0.09 0.13 0.14 0.16 0.18 0.18 0.16 0.13 0.09 0.07 0.06 0.04 0.03 0.02 0.03 0.02 0.02
0.06 0.05 0.06 0.07 0.07 0.08 0.07 0.07 0.08 0.09 0.09 0.12 0.11 0.10 0.06 0.05 0.03 0.03 0.07 0.12 0.11 0.10 0.11 0.10 0.09 0.08 0.08 0.09 0.11 0.16 0.19 0.19 0.16 0.13 0.09 0.07 0.06 0.04 0.04 0.03 0.04 0.04 0.03
0.05 0.06 0.06 0.08 0.08 0.06 0.06 0.06 0.07 0.08 0.09 0.09 0.09 0.09 0.07 0.04 0.03 0.03 0.03 0.07 0.11 0.11 0.11 0.11 0.11 0.09 0.08 0.10 0.13 0.16 0.18 0.17 0.15 0.13 0.11 0.11 0.10 0.08 0.08 0.09 0.07 0.05 0.04
0.05 0.06 0.06 0.08 0.08 0.06 0.06 0.07 0.07 0.07 0.07 0.07 0.08 0.08 0.07 0.05 0.05 0.05 0.04 0.04 0.06 0.09 0.12 0.13 0.12 0.10 0.10 0.11 0.13 0.16 0.17 0.15 0.14 0.14 0.13 0.12 0.10 0.08 0.09 0.10 0.06 0.04 0.03
0.05 0.05 0.06 0.07 0.07 0.07 0.08 0.08 0.07 0.06 0.06 0.07 0.07 0.08 0.07 0.06 0.05 0.06 0.05 0.07 0.09 0.10 0.12 0.14 0.14 0.13 0.11 0.10 0.09 0.12 0.13 0.13 0.12 0.12 0.12 0.10 0.09 0.07 0.07 0.06 0.05 0.04 0.03
0.03 0.03 0.04 0.06 0.06 0.07 0.08 0.07 0.06 0.05 0.06 0.06 0.06 0.07 0.07 0.06 0.06 0.07 0.07 0.08 0.11 0.13 0.14 0.14 0.13 0.12 0.12 0.12 0.11 0.13 0.13 0.16 0.16 0.16 0.14 0.12 0.12 0.10 0.08 0.06 0.05 0.04 0.03
0.04 0.04 0.05 0.04 0.04 0.05 0.05 0.05 0.05 0.05 0.05 0.05 0.06 0.06 0.07 0.08 0.09 0.12 0.15 0.14 0.12 0.12 0.13 0.15 0.16 0.16 0.15 0.14 0.13 0.13 0.13 0.16 0.19 0.19 0.15 0.13 0.11 0.10 0.09 0.08 0.06 0.05 0.03
0.03 0.03 0.03 0.03 0.03 0.03 0.04 0.04 0.04 0.04 0.04 0.05 0.08 0.08 0.08 0.10 0.12 0.13 0.14 0.16 0.17 0.18 0.17 0.17 0.19 0.19 0.17 0.16 0.17 0.15 0.12 0.14 0.14 0.14 0.14 0.13 0.11 0.11 0.09 0.08 0.07 0.06 0.04
0.02 0.02 0.03 0.03 0.02 0.02 0.02 0.03 0.03 0.03 0.03 0.04 0.05 0.06 0.07 0.07 0.07 0.09 0.12 0.14 0.16 0.20 0.23 0.22 0.21 0.21 0.18 0.18 0.20 0.16 0.14 0.16 0.15 0.14 0.13 0.11 0.10 0.09 0.07 0.06 0.05 0.04 0.03
0.01 0.01 0.01 0.02 0.02 0.03 0.03 0.02 0.01 0.01 0.02 0.03 0.03 0.03 0.04 0.05 0.05 0.06 0.08 0.12 0.14 0.18 0.22 0.24 0.24 0.24 0.20 0.18 0.21 0.17 0.16 0.17 0.13 0.11 0.10 0.09 0.09 0.07 0.06 0.05 0.04 0.02 0.02
0.01 0.01 0.02 0.02 0.02 0.02 0.01 0.01 0.02 0.02 0.02 0.02 0.01 0.01 0.02 0.03 0.04 0.05 0.09 0.13 0.18 0.21 0.24 0.27 0.26 0.25 0.23 0.18 0.15 0.13 0.13 0.13 0.12 0.11 0.09 0.07 0.06 0.04 0.03 0.03 0.02 0.01 0.01
0.01 0.01 0.02 0.02 0.02 0.02 0.01 0.01 0.01 0.02 0.02 0.02 0.01 0.01 0.01 0.02 0.04 0.06 0.10 0.16 0.22 0.28 0.28 0.31 0.30 0.24 0.20 0.16 0.13 0.11 0.10 0.11 0.11 0.11 0.08 0.05 0.04 0.02 0.02 0.01 0.01 0.00 0.00
0.01 0.01 0.01 0.01 0.02 0.02 0.02 0.02 0.01 0.01 0.01 0.02 0.02 0.02 0.03 0.03 0.04 0.06 0.09 0.11 0.16 0.23 0.27 0.28 0.28 0.22 0.18 0.14 0.11 0.10 0.09 0.09 0.08 0.07 0.05 0.04 0.03 0.02 0.01 0.00 0.00 0.00 0.00
0.01 0.01 0.01 0.02 0.02 0.02 0.02 0.02 0.02 0.01 0.02 0.02 0.03 0.04 0.05 0.05 0.06 0.07 0.09 0.10 0.12 0.16 0.21 0.23 0.22 0.19 0.14 0.11 0.09 0.08 0.08 0.07 0.06 0.05 0.04 0.03 0.02 0.01 0.01 0.00 0.00 0.00 0.00
0.02 0.02 0.02 0.02 0.02 0.02 0.02 0.02 0.01 0.01 0.03 0.04 0.04 0.04 0.06 0.07 0.08 0.08 0.08 0.09 0.08 0.10 0.13 0.14 0.15 0.11 0.08 0.07 0.07 0.06 0.05 0.05 0.05 0.04 0.03 0.02 0.01 0.00 0.00 0.00 0.00 0.00 0.00
0.02 0.02 0.03 0.03 0.03 0.02 0.03 0.03 0.02 0.02 0.04 0.06 0.06 0.04 0.04 0.06 0.07 0.07 0.06 0.08 0.08 0.06 0.07 0.07 0.08 0.06 0.05 0.04 0.04 0.04 0.03 0.03 0.03 0.02 0.02 0.01 0.00 0.00 0.00 0.00 0.00 0.00 0.00
0.03 0.04 0.04 0.04 0.04 0.03 0.05 0.04 0.04 0.05 0.06 0.06 0.05 0.05 0.04 0.03 0.05 0.06 0.05 0.06 0.08 0.07 0.07 0.05 0.05 0.04 0.04 0.04 0.03 0.03 0.02 0.02 0.01 0.01 0.01 0.01 0.00 0.00 0.00 0.00 0.00 0.00 0.00
0.04 0.04 0.05 0.05 0.05 0.04 0.06 0.06 0.06 0.05 0.06 0.06 0.05 0.04 0.05 0.03 0.03 0.06 0.04 0.03 0.04 0.06 0.08 0.07 0.05 0.03 0.03 0.02 0.02 0.02 0.02 0.01 0.01 0.00 0.00 0.00 0.00 0.00 0.00 0.00 0.00 0.00 0.00
0.04 0.05 0.06 0.06 0.06 0.06 0.07 0.06 0.05 0.03 0.04 0.04 0.04 0.05 0.05 0.05 0.04 0.05 0.03 0.03 0.03 0.04 0.05 0.05 0.05 0.03 0.02 0.02 0.01 0.01 0.00 0.00 0.00 0.00 0.00 0.00 0.00 0.00 0.00 0.00 0.00 0.00 0.00
0.05 0.05 0.05 0.06 0.07 0.08 0.08 0.06 0.05 0.03 0.03 0.03 0.03 0.04 0.05 0.05 0.04 0.03 0.02 0.02 0.04 0.04 0.02 0.02 0.02 0.01 0.01 0.01 0.01 0.00 0.00 0.01 0.01 0.00 0.00 0.00 0.00 0.00 0.00 0.00 0.00 0.00 0.00
MSLP
1018.43 1018.67 1018.80 1018.89 1018.98 1019.11 1019.31 1019.57 1019.87 1020.17 1020.45 1020.67 1020.84 1020.95 1021.04 1021.12 1021.21 1021.33 1021.46 1021.61 1021.76 1021.88 1021.99 1022.08 1022.15 1022.22 1022.31 1022.39 1022.47 1022.53 1022.55 1022.52 1022.45 1022.34 1022.22 1022.12 1022.06 1022.07 1022.15 1022.29 1022.48 1022.68 1022.89
1018.31 1018.55 1018.69 1018.78 1018.88 1019.02 1019.23 1019.51 1019.84 1020.18 1020.51 1020.78 1021.00 1021.16 1021.26 1021.35 1021.43 1021.52 1021.64 1021.76 1021.90 1022.05 1022.19 1022.33 1022.47 1022.61 1022.73 1022.85 1022.95 1023.01 1023.03 1022.99 1022.92 1022.83 1022.74 1022.67 1022.66 1022.71 1022.82 1022.97 1023.17 1023.37 1023.57
1018.15 1018.38 1018.53 1018.63 1018.74 1018.89 1019.12 1019.41 1019.76 1020.14 1020.50 1020.82 1021.08 1021.27 1021.41 1021.51 1021.59 1021.67 1021.77 1021.89 1022.02 1022.18 1022.36 1022.54 1022.73 1022.92 1023.10 1023.25 1023.37 1023.45 1023.47 1023.45 1023.40 1023.33 1023.28 1023.26 1023.29 1023.38 1023.51 1023.69 1023.88 1024.08 1024.27
1017.94 1018.16 1018.30 1018.41 1018.53 1018.70 1018.94 1019.25 1019.62 1020.01 1020.40 1020.76 1021.05 1021.28 1021.45 1021.57 1021.67 1021.75 1021.85 1021.96 1022.11 1022.28 1022.47 1022.69 1022.92 1023.15 1023.37 1023.55 1023.70 1023.80 1023.85 1023.85 1023.84 1023.81 1023.80 1023.83 1023.90 1024.02 1024.18 1024.36 1024.55 1024.74 1024.92
1017.68 1017.87 1018.01 1018.13 1018.26 1018.44 1018.69 1019.00 1019.37 1019.78 1020.19 1020.57 1020.90 1021.17 1021.38 1021.54 1021.66 1021.77 1021.88 1022.00 1022.15 1022.33 1022.54 1022.78 1023.03 1023.29 1023.53 1023.75 1023.93 1024.06 1024.14 1024.19 1024.21 1024.23 1024.27 1024.34 1024.44 1024.59 1024.76 1024.95 1025.14 1025.32 1025.48
1017.38 1017.54 1017.67 1017.78 1017.92 1018.11 1018.36 1018.68 1019.05 1019.46 1019.88 1020.27 1020.64 1020.95 1021.21 1021.42 1021.59 1021.74 1021.88 1022.02 1022.18 1022.37 1022.59 1022.83 1023.10 1023.37 1023.63 1023.87 1024.08 1024.25 1024.37 1024.46 1024.53 1024.60 1024.68 1024.78 1024.91 1025.07 1025.24 1025.43 1025.61 1025.77 1025.92
1017.08 1017.21 1017.31 1017.42 1017.56 1017.75 1018.00 1018.31 1018.68 1019.08 1019.50 1019.92 1020.31 1020.66 1020.97 1021.24 1021.47 1021.67 1021.85 1022.03 1022.21 1022.41 1022.63 1022.88 1023.15 1023.43 1023.70 1023.97 1024.20 1024.40 1024.57 1024.70 1024.81 1024.92 1025.03 1025.15 1025.30 1025.46 1025.63 1025.80 1025.97 1026.12 1026.26
1016.83 1016.92 1017.00 1017.10 1017.24 1017.42 1017.66 1017.97 1018.32 1018.71 1019.12 1019.54 1019.95 1020.34 1020.70 1021.02 1021.32 1021.58 1021.81 1022.03 1022.24 1022.45 1022.69 1022.94 1023.21 1023.50 1023.79 1024.07 1024.33 1024.56 1024.76 1024.93 1025.08 1025.21 1025.34 1025.48 1025.63 1025.78 1025.94 1026.09 1026.24 1026.39 1026.52
1016.70 1016.75 1016.81 1016.89 1017.01 1017.19 1017.41 1017.69 1018.02 1018.38 1018.77 1019.17 1019.58 1019.99 1020.39 1020.76 1021.11 1021.43 1021.72 1021.98 1022.24 1022.49 1022.75 1023.02 1023.31 1023.62 1023.93 1024.23 1024.51 1024.77 1024.99 1025.18 1025.35 1025.50 1025.64 1025.78 1025.92 1026.06 1026.20 1026.34 1026.48 1026.61 1026.75
1016.73 1016.75 1016.78 1016.85 1016.95 1017.10 1017.30 1017.53 1017.81 1018.12 1018.46 1018.82 1019.21 1019.61 1020.01 1020.42 1020.81 1021.18 1021.53 1021.85 1022.17 1022.47 1022.78 1023.10 1023.43 1023.77 1024.11 1024.44 1024.75 1025.02 1025.26 1025.47 1025.64 1025.79 1025.92 1026.05 1026.18 1026.31 1026.45 1026.58 1026.71 1026.84 1026.97
1016.94 1016.93 1016.94 1016.98 1017.05 1017.16 1017.31 1017.49 1017.69 1017.92 1018.18 1018.48 1018.80 1019.16 1019.54 1019.95 1020.36 1020.77 1021.18 1021.57 1021.97 1022.35 1022.74 1023.14 1023.54 1023.94 1024.33 1024.69 1025.03 1025.32 1025.56 1025.77 1025.93 1026.07 1026.19 1026.31 1026.43 1026.56 1026.69 1026.82 1026.95 1027.08 1027.22
1017.30 1017.27 1017.25 1017.25 1017.29 1017.35 1017.43 1017.52 1017.63 1017.75 1017.90 1018.09 1018.32 1018.60 1018.93 1019.31 1019.73 1020.17 1020.63 1021.11 1021.60 1022.09 1022.59 1023.09 1023.59 1024.07 1024.53 1024.95 1025.32 1025.62 1025.87 1026.06 1026.21 1026.33 1026.43 1026.54 1026.66 1026.78 1026.92 1027.06 1027.20 1027.35 1027.48
1017.75 1017.70 1017.65 1017.62 1017.61 1017.60 1017.59 1017.58 1017.57 1017.56 1017.57 1017.63 1017.74 1017.92 1018.17 1018.50 1018.91 1019.37 1019.89 1020.46 1021.05 1021.67 1022.30 1022.94 1023.56 1024.15 1024.70 1025.18 1025.58 1025.90 1026.14 1026.31 1026.44 1026.53 1026.62 1026.72 1026.84 1026.97 1027.13 1027.29 1027.45 1027.61 1027.75
1018.21 1018.15 1018.07 1018.00 1017.93 1017.84 1017.74 1017.61 1017.47 1017.32 1017.19 1017.10 1017.08 1017.14 1017.31 1017.58 1017.97 1018.45 1019.02 1019.67 1020.38 1021.13 1021.91 1022.69 1023.45 1024.16 1024.80 1025.34 1025.78 1026.11 1026.35 1026.50 1026.60 1026.67 1026.75 1026.84 1026.96 1027.11 1027.29 1027.47 1027.66 1027.83 1027.97
1018.63 1018.54 1018.44 1018.33 1018.19 1018.03 1017.83 1017.59 1017.32 1017.03 1016.77 1016.54 1016.40 1016.36 1016.44 1016.66 1017.01 1017.51 1018.13 1018.86 1019.68 1020.56 1021.48 1022.40 1023.29 1024.11 1024.83 1025.44 1025.91 1026.25 1026.47 1026.60 1026.68 1026.73 1026.78 1026.87 1027.00 1027.17 1027.37 1027.58 1027.79 1027.97 1028.11
1018.94 1018.84 1018.72 1018.57 1018.38 1018.14 1017.86 1017.53 1017.15 1016.76 1016.38 1016.05 1015.81 1015.68 1015.70 1015.87 1016.21 1016.72 1017.37 1018.17 1019.07 1020.06 1021.09 1022.12 1023.11 1024.02 1024.81 1025.46 1025.96 1026.30 1026.51 1026.62 1026.67 1026.70 1026.74 1026.82 1026.96 1027.14 1027.36 1027.58 1027.80 1027.98 1028.12
1019.14 1019.04 1018.90 1018.72 1018.49 1018.21 1017.87 1017.47 1017.03 1016.57 1016.13 1015.74 1015.44 1015.26 1015.24 1015.39 1015.71 1016.22 1016.90 1017.73 1018.69 1019.74 1020.83 1021.93 1022.98 1023.94 1024.77 1025.44 1025.94 1026.27 1026.47 1026.56 1026.59 1026.60 1026.63 1026.70 1026.83 1027.02 1027.24 1027.47 1027.68 1027.85 1027.97
1019.25 1019.15 1019.01 1018.83 1018.59 1018.29 1017.92 1017.50 1017.04 1016.56 1016.10 1015.69 1015.38 1015.20 1015.17 1015.31 1015.63 1016.14 1016.82 1017.65 1018.61 1019.66 1020.77 1021.87 1022.93 1023.89 1024.72 1025.38 1025.87 1026.19 1026.37 1026.45 1026.46 1026.45 1026.47 1026.53 1026.65 1026.82 1027.03 1027.24 1027.44 1027.58 1027.68
1019.34 1019.25 1019.13 1018.95 1018.72 1018.43 1018.08 1017.67 1017.23 1016.77 1016.34 1015.97 1015.69 1015.53 1015.52 1015.67 1016.00 1016.49 1017.14 1017.94 1018.86 1019.86 1020.92 1021.97 1022.98 1023.90 1024.69 1025.32 1025.78 1026.09 1026.25 1026.31 1026.31 1026.30 1026.30 1026.34 1026.44 1026.59 1026.76 1026.94 1027.09 1027.21 1027.26
1019.45 1019.39 1019.29 1019.15 1018.95 1018.70 1018.38 1018.02 1017.63 1017.23 1016.87 1016.56 1016.34 1016.24 1016.27 1016.44 1016.76 1017.23 1017.84 1018.57 1019.40 1020.31 1021.26 1022.21 1023.13 1023.97 1024.69 1025.26 1025.69 1025.97 1026.13 1026.19 1026.19 1026.17 1026.16 1026.18 1026.25 1026.35 1026.47 1026.60 1026.70 1026.77 1026.78
1019.62 1019.60 1019.55 1019.45 1019.30 1019.10 1018.84 1018.54 1018.22 1017.90 1017.62 1017.39 1017.26 1017.22 1017.30 1017.49 1017.81 1018.24 1018.79 1019.42 1020.14 1020.92 1021.74 1022.56 1023.35 1024.08 1024.72 1025.23 1025.62 1025.89 1026.04 1026.10 1026.11 1026.09 1026.07 1026.07 1026.10 1026.15 1026.22 1026.28 1026.32 1026.32 1026.29
1019.89 1019.92 1019.91 1019.87 1019.77 1019.62 1019.42 1019.19 1018.94 1018.70 1018.51 1018.37 1018.31 1018.35 1018.47 1018.69 1019.00 1019.39 1019.86 1020.40 1020.99 1021.63 1022.29 1022.97 1023.63 1024.24 1024.78 1025.24 1025.59 1025.85 1026.00 1026.08 1026.10 1026.09 1026.06 1026.04 1026.03 1026.03 1026.03 1026.02 1025.99 1025.93 1025.84
1020.26 1020.34 1020.38 1020.39 1020.34 1020.24 1020.09 1019.91 1019.73 1019.56 1019.44 1019.38 1019.39 1019.49 1019.66 1019.90 1020.20 1020.55 1020.95 1021.38 1021.85 1022.35 1022.87 1023.40 1023.93 1024.43 1024.89 1025.29 1025.62 1025.86 1026.03 1026.13 1026.17 1026.16 1026.13 1026.09 1026.05 1025.99 1025.92 1025.84 1025.74 1025.62 1025.49
1020.72 1020.84 1020.94 1020.99 1020.98 1020.91 1020.80 1020.66 1020.52 1020.41 1020.34 1020.34 1020.41 1020.55 1020.75 1021.01 1021.30 1021.62 1021.95 1022.30 1022.67 1023.05 1023.44 1023.85 1024.26 1024.67 1025.06 1025.41 1025.71 1025.95 1026.13 1026.25 1026.30 1026.31 1026.28 1026.22 1026.13 1026.03 1025.90 1025.76 1025.60 1025.42 1025.23
1021.24 1021.41 1021.55 1021.63 1021.65 1021.60 1021.51 1021.39 1021.28 1021.20 1021.17 1021.20 1021.31 1021.49 1021.72 1021.99 1022.27 1022.56 1022.85 1023.14 1023.42 1023.71 1024.00 1024.31 1024.63 1024.96 1025.29 1025.60 1025.87 1026.11 1026.29 1026.42 1026.49 1026.50 1026.46 1026.38 1026.26 1026.12 1025.94 1025.74 1025.53 1025.30 1025.07
1021.82 1022.03 1022.20 1022.30 1022.33 1022.29 1022.21 1022.11 1022.01 1021.94 1021.93 1022.00 1022.13 1022.33 1022.57 1022.85 1023.13 1023.41 1023.66 1023.90 1024.13 1024.34 1024.57 1024.80 1025.05 1025.31 1025.58 1025.85 1026.09 1026.31 1026.49 1026.61 1026.67 1026.68 1026.63 1026.53 1026.39 1026.21 1025.99 1025.75 1025.49 1025.22 1024.96
Thickness
5718 5718 5718 5717 5716 5716 5715 5714 5713 5713 5712 5712 5712 5711 5710 5710 5710 5711 5711 5711 5711 5710 5709 5709 5707 5706 5705 5704 5702 5701 5700 5698 5697 5695 5694 5693 5692 5691 5689 5688 5687 5685 5684
5714 5714 5714 5713 5712 5712 5712 5711 5710 5709 5708 5707 5707 5707 5707 5706 5707 5707 5707 5707 5708 5708 5707 5706 5705 5704 5703 5701 5700 5698 5697 5695 5694 5692 5691 5689 5688 5686 5685 5683 5682 5680 5678
5710 5710 5709 5709 5708 5708 5707 5707 5706 5704 5703 5702 5702 5702 5703 5703 5703 5703 5704 5704 5704 5704 5704 5703 5702 5701 5700 5699 5697 5696 5693 5692 5690 5688 5687 5685 5684 5682 5680 5678 5676 5674 5672
5706 5706 5706 5705 5704 5703 5703 5702 5701 5699 5698 5697 5697 5697 5697 5698 5698 5699 5699 5700 5700 5700 5700 5699 5699 5698 5697 5696 5694 5692 5690 5688 5686 5685 5683 5681 5679 5677 5675 5673 5671 5669 5666
5701 5701 5701 5701 5700 5699 5699 5698 5697 5695 5693 5692 5693 5692 5692 5692 5693 5694 5695 5695 5695 5695 5695 5695 5695 5694 5693 5692 5690 5689 5687 5685 5682 5680 5678 5676 5674 5672 5670 5667 5665 5662 5660
5697 5697 5696 5695 5695 5694 5693 5693 5692 5691 5690 5689 5688 5687 5686 5687 5688 5689 5690 5690 5690 5691 5691 5691 5690 5689 5689 5688 5686 5684 5682 5680 5678 5676 5673 5671 5668 5666 5663 5661 5658 5655 5653
5691 5691 5690 5690 5689 5689 5689 5688 5687 5686 5684 5683 5681 5679 5680 5681 5682 5684 5685 5685 5685 5685 5685 5686 5685 5684 5684 5683 5682 5680 5678 5676 5673 5670 5668 5665 5662 5660 5657 5654 5651 5648 5645
5685 5684 5685 5685 5684 5684 5684 5684 5682 5680 5679 5678 5676 5672 5672 5673 5676 5678 5678 5679 5678 5679 5679 5679 5679 5678 5678 5677 5677 5675 5673 5671 5668 5665 5662 5658 5655 5652 5649 5646 5643 5639 5636
5679 5679 5679 5679 5678 5678 5678 5678 5677 5676 5673 5672 5672 5670 5667 5667 5668 5669 5671 5672 5672 5672 5671 5671 5672 5672 5672 5671 5670 5669 5667 5664 5661 5658 5654 5651 5648 5645 5642 5638 5634 5631 5627
5671 5672 5673 5672 5672 5672 5672 5672 5672 5671 5670 5668 5666 5666 5666 5666 5663 5662 5662 5663 5664 5664 5664 5664 5664 5665 5664 5664 5664 5662 5659 5656 5653 5650 5647 5643 5640 5637 5633 5629 5625 5622 5618
5664 5664 5665 5665 5665 5665 5665 5665 5665 5665 5665 5664 5663 5661 5660 5659 5659 5657 5655 5655 5655 5655 5655 5656 5656 5656 5656 5656 5655 5654 5651 5648 5645 5642 5638 5634 5631 5628 5624 5620 5616 5612 5609
5655 5655 5656 5656 5657 5657 5658 5658 5658 5658 5658 5659 5658 5657 5656 5655 5655 5653 5651 5648 5647 5645 5646 5647 5647 5647 5647 5647 5646 5645 5642 5639 5636 5633 5629 5625 5622 5618 5614 5611 5607 5603 5598
5645 5646 5647 5648 5648 5649 5650 5651 5651 5651 5651 5652 5652 5652 5652 5653 5652 5650 5647 5643 5640 5637 5636 5636 5636 5637 5637 5636 5635 5634 5631 5628 5625 5621 5618 5615 5611 5608 5604 5601 5597 5593 5589
5636 5637 5639 5639 5640 5641 5642 5642 5643 5643 5644 5645 5646 5646 5647 5647 5646 5646 5644 5640 5635 5630 5628 5627 5625 5626 5626 5625 5624 5622 5619 5617 5614 5611 5608 5604 5601 5598 5594 5590 5586 5582 5579
5627 5628 5630 5631 5631 5632 5632 5633 5634 5635 5636 5637 5638 5639 5639 5640 5639 5640 5639 5638 5635 5629 5623 5618 5616 5615 5616 5614 5612 5610 5608 5605 5603 5600 5597 5594 5591 5587 5584 5580 5576 5572 5568
5618 5619 5621 5621 5622 5623 5623 5624 5625 5626 5627 5628 5629 5630 5631 5632 5633 5633 5633 5633 5632 5628 5619 5612 5609 5607 5605 5603 5600 5598 5597 5594 5592 5589 5587 5584 5580 5577 5573 5570 5567 5563 5559
5608 5609 5610 5612 5613 5613 5614 5615 5616 5617 5618 5619 5620 5622 5623 5624 5625 5625 5625 5625 5624 5622 5615 5605 5600 5597 5595 5592 5589 5588 5586 5584 5581 5579 5577 5574 5571 5568 5564 5561 5558 5555 5551
5597 5598 5600 5601 5603 5604 5605 5606 5607 5608 5610 5611 5612 5613 5615 5616 5617 5617 5617 5616 5615 5613 5609 5600 5592 5588 5584 5582 5580 5578 5576 5574 5571 5570 5568 5565 5563 5559 5556 5553 5550 5547 5544
5586 5587 5589 5590 5592 5594 5595 5596 5598 5600 5601 5602 5603 5605 5606 5607 5608 5608 5608 5607 5605 5602 5598 5593 5584 5579 5575 5573 5571 5569 5566 5564 5563 5561 5559 5557 5554 5552 5549 5546 5544 5541 5539
5575 5576 5578 5580 5582 5584 5586 5587 5590 5591 5592 5593 5594 5596 5598 5599 5599 5599 5598 5597 5595 5592 5587 5582 5576 5571 5568 5565 5564 5561 5558 5556 5555 5553 5552 5550 5548 5546 5544 5541 5539 5536 5534
5565 5567 5569 5571 5573 5575 5576 5578 5581 5582 5583 5584 5585 5587 5589 5590 5590 5590 5590 5588 5586 5582 5578 5574 5569 5564 5561 5558 5557 5555 5553 5550 5548 5546 5545 5544 5542 5540 5539 5537 5535 5533 5530
5556 5558 5559 5561 5563 5565 5566 5569 5572 5573 5574 5575 5576 5577 5579 5580 5580 5580 5579 5578 5577 5575 5571 5567 5563 5560 5556 5554 5552 5550 5548 5546 5544 5541 5540 5539 5537 5536 5534 5533 5531 5530 5528
5546 5547 5549 5551 5552 5554 5557 5561 5563 5565 5565 5566 5567 5569 5570 5569 5571 5570 5569 5569 5567 5565 5565 5563 5559 5555 5552 5550 5548 5545 5542 5541 5539 5536 5534 5534 5532 5532 5532 5530 5529 5528 5526
5536 5538 5539 5541 5543 5545 5548 5552 5554 5556 5557 5557 5559 5560 5560 5560 5562 5562 5562 5560 5558 5556 5556 5555 5553 5550 5548 5546 5544 5542 5538 5535 5532 5531 5530 5531 5530 5529 5529 5529 5528 5527 5525
5527 5529 5530 5532 5534 5536 5539 5543 5547 5548 5549 5549 5550 5551 5552 5553 5553 5555 5555 5552 5550 5548 5548 5547 5546 5544 5542 5541 5539 5537 5534 5533 5531 5530 5527 5528 5527 5526 5527 5527 5527 5526 5525
5520 5521 5522 5524 5526 5528 5531 5535 5539 5541 5541 5541 5541 5542 5544 5545 5546 5547 5548 5547 5544 5541 5542 5541 5539 5538 5537 5535 5534 5533 5532 5531 5530 5529 5526 5525 5525 5524 5526 5526 5525 5525 5524